Andrews, NC

3:20 PM EDT on July 24, 2017 (GMT -0400)
Andrews

Weather History for KRHP - April, 2014

Change the Weather History Date:

Sunday, April 6, 2014

  Actual Average (KMMI) Record (KMMI)
Temperature  
Mean Temperature 50 °F -  
Max Temperature 63 °F 65 °F 66 °F (2014)
Min Temperature 37 °F 39 °F 33 °F (2016)
Degree Days  
Heating Degree Days 15    
Moisture  
Dew Point 39 °F    
Average Humidity 71    
Maximum Humidity 98    
Minimum Humidity 35    
Precipitation  
Precipitation 0.10 in - - ()
Sea Level Pressure  
Sea Level Pressure 30.02 in    
Wind  
Wind Speed 2 mph (SW)    
Max Wind Speed 9 mph    
Max Gust Speed -    
Visibility 10 miles    
Events Rain    
Averages and records for this station are not official NWS values.
T = Trace of Precipitation, MM = Missing Value Source: NWS Daily Summary

Daily Weather History Graph

Daily Weather History Graph

Search for Another Location

Airport or City:

Trip Planner

Search our weather history database for the weather conditions in past years. The results will help you decide how hot, cold, wet, or windy it might be!

Date:

Astronomy

Apr. 06, 2014 Rise Set
Actual Time 7:15 AM EDT 8:00 PM EDT
Civil Twilight 6:49 AM EDT 8:26 PM EDT
Nautical Twilight 6:19 AM EDT 8:57 PM EDT
Astronomical Twilight 5:48 AM EDT 9:28 PM EDT
Moon 12:22 PM EDT (4/6) 1:49 AM EDT (4/6)
Length of Visible Light 13h 37m
Length of Day
12h 45m
Waxing Crescent, 43% of the Moon is Illuminated
Apr 6
Waxing Crescent
Apr 7
First Quarter
Apr 15
Full
Apr 22
Last Quarter
Apr 29
New

Hourly Weather History & Observations

Time (EDT) Temp. Windchill Dew Point Humidity Pressure Visibility Wind Dir Wind Speed Gust Speed Precip Events Conditions
12:15 AM 43.0 °F - 36.5 °F 78% 30.06 in 10.0 mi Calm Calm - N/A   Clear
12:35 AM 41.9 °F - 37.6 °F 85% 30.06 in 10.0 mi Calm Calm - N/A   Clear
12:55 AM 40.6 °F - 36.5 °F 85% 30.06 in 10.0 mi Calm Calm - N/A   Clear
1:15 AM 41.7 °F - 36.7 °F 82% 30.06 in 10.0 mi Calm Calm - N/A   Clear
1:35 AM 40.8 °F - 36.9 °F 86% 30.06 in 10.0 mi Calm Calm - N/A   Clear
1:55 AM 40.8 °F - 36.5 °F 85% 30.06 in 10.0 mi Calm Calm - N/A   Clear
2:15 AM 40.1 °F - 37.2 °F 89% 30.05 in 10.0 mi Calm Calm - N/A   Clear
2:35 AM 40.5 °F - 36.9 °F 87% 30.03 in 10.0 mi Calm Calm - N/A   Clear
2:55 AM 41.0 °F - 36.7 °F 85% 30.03 in 10.0 mi Calm Calm - N/A   Clear
3:15 AM 40.3 °F - 36.5 °F 86% 30.02 in 10.0 mi Calm Calm - N/A   Clear
3:35 AM 39.6 °F - 37.4 °F 92% 30.02 in 10.0 mi Calm Calm - N/A   Clear
3:55 AM 39.9 °F - 36.7 °F 88% 30.04 in 10.0 mi Calm Calm - N/A   Clear
4:15 AM 39.7 °F - 37.4 °F 91% 30.04 in 10.0 mi Calm Calm - N/A   Clear
4:35 AM 39.6 °F - 37.4 °F 92% 30.04 in 10.0 mi Calm Calm - N/A   Clear
4:55 AM 39.9 °F - 36.9 °F 89% 30.04 in 10.0 mi Calm Calm - N/A   Clear
5:15 AM 38.7 °F 36.3 °F 36.7 °F 93% 30.04 in 10.0 mi East 3.5 mph - N/A   Clear
5:35 AM 39.2 °F - 36.7 °F 91% 30.05 in 10.0 mi Calm Calm - N/A   Clear
5:55 AM 37.9 °F - 35.8 °F 92% 30.03 in 10.0 mi Calm Calm - N/A   Clear
6:15 AM 38.1 °F 35.7 °F 35.6 °F 91% 30.04 in 10.0 mi South 3.5 mph - N/A   Clear
6:35 AM 38.3 °F 35.9 °F 35.8 °F 91% 30.04 in 10.0 mi North 3.5 mph - N/A   Clear
6:55 AM 37.4 °F - 35.2 °F 92% 30.04 in 10.0 mi Calm Calm - N/A   Clear
7:15 AM 37.2 °F - 35.2 °F 93% 30.04 in 10.0 mi Calm Calm - N/A   Clear
7:35 AM 37.4 °F - 35.6 °F 93% 30.05 in 10.0 mi Calm Calm - N/A   Clear
7:55 AM 37.0 °F - 35.4 °F 94% 30.06 in 10.0 mi Calm Calm - N/A   Clear
8:15 AM 38.1 °F - 36.7 °F 95% 30.07 in 10.0 mi Calm Calm - N/A   Clear
8:35 AM 40.1 °F - 37.8 °F 91% 30.06 in 10.0 mi Calm Calm - N/A   Clear
8:55 AM 41.4 °F - 38.7 °F 90% 30.06 in 10.0 mi Calm Calm - N/A   Clear
9:15 AM 42.8 °F - 39.0 °F 86% 30.06 in 10.0 mi Calm Calm - N/A   Clear
9:35 AM 43.9 °F - 39.4 °F 84% 30.06 in 10.0 mi Calm Calm - N/A   Clear
9:55 AM 45.3 °F - 39.6 °F 80% 30.07 in 10.0 mi Calm Calm - N/A   Clear
10:15 AM 46.0 °F 44.8 °F 39.7 °F 79% 30.10 in 10.0 mi SW 3.5 mph - N/A   Scattered Clouds
10:35 AM 47.5 °F - 40.1 °F 76% 30.09 in 10.0 mi Calm Calm - N/A   Mostly Cloudy
10:55 AM 49.8 °F - 41.4 °F 73% 30.08 in 10.0 mi Calm Calm - N/A   Overcast
11:15 AM 52.7 °F - 40.8 °F 64% 30.07 in 10.0 mi Calm Calm - N/A   Overcast
11:35 AM 55.0 °F - 41.9 °F 61% 30.06 in 10.0 mi Calm Calm - N/A   Scattered Clouds
11:55 AM 59.0 °F - 37.2 °F 44% 30.06 in 10.0 mi Calm Calm - N/A   Clear
12:15 PM 59.4 °F - 34.5 °F 39% 30.06 in 10.0 mi NW 4.6 mph - N/A   Clear
12:35 PM 61.5 °F - 35.6 °F 38% 30.05 in 10.0 mi West 8.1 mph - N/A   Clear
12:55 PM 62.6 °F - 35.2 °F 36% 30.03 in 10.0 mi SSW 6.9 mph - N/A   Clear
1:15 PM 63.1 °F - 35.4 °F 36% 30.03 in 10.0 mi SW 6.9 mph - N/A   Clear
1:35 PM 63.1 °F - 35.1 °F 35% 30.02 in 10.0 mi South 9.2 mph - N/A   Clear
1:55 PM 63.5 °F - 35.8 °F 36% 30.01 in 10.0 mi SW 4.6 mph - N/A   Clear
2:15 PM 63.0 °F - 35.6 °F 36% 30.01 in 10.0 mi NW 3.5 mph - N/A   Clear
2:35 PM 63.5 °F - 37.0 °F 38% 30.01 in 10.0 mi SW 8.1 mph - N/A   Scattered Clouds
2:55 PM 63.7 °F - 38.5 °F 39% 30.00 in 10.0 mi SW 8.1 mph - N/A   Mostly Cloudy
3:15 PM 63.1 °F - 38.1 °F 40% 30.01 in 10.0 mi WSW 8.1 mph - N/A   Overcast
3:35 PM 63.0 °F - 38.5 °F 40% 29.99 in 10.0 mi WSW 6.9 mph - N/A   Overcast
3:55 PM 62.6 °F - 39.6 °F 43% 30.00 in 10.0 mi WSW 8.1 mph - N/A   Overcast
4:15 PM 62.6 °F - 39.2 °F 42% 29.98 in 10.0 mi SW 6.9 mph - N/A   Mostly Cloudy
4:35 PM 62.1 °F - 39.2 °F 43% 29.99 in 10.0 mi SSW 4.6 mph - N/A   Overcast
4:55 PM 61.7 °F - 40.1 °F 45% 29.99 in 10.0 mi South 8.1 mph - N/A   Overcast
5:15 PM 61.0 °F - 38.8 °F 44% 29.98 in 10.0 mi Calm Calm - N/A   Overcast
5:35 PM 60.4 °F - 39.7 °F 46% 29.97 in 10.0 mi Calm Calm - N/A   Overcast
5:55 PM 60.4 °F - 40.3 °F 47% 29.96 in 10.0 mi Calm Calm - N/A   Overcast
6:15 PM 60.1 °F - 41.2 °F 50% 29.96 in 10.0 mi North 3.5 mph - N/A   Overcast
6:35 PM 59.2 °F - 42.8 °F 55% 29.96 in 10.0 mi WSW 3.5 mph - N/A   Overcast
6:55 PM 59.7 °F - 40.5 °F 49% 29.96 in 10.0 mi SSW 5.8 mph - N/A   Overcast
7:15 PM 59.0 °F - 42.1 °F 53% 29.95 in 10.0 mi West 6.9 mph - N/A   Overcast
7:35 PM 58.1 °F - 41.7 °F 54% 29.96 in 10.0 mi West 8.1 mph - N/A   Overcast
7:55 PM 57.9 °F - 40.5 °F 52% 29.97 in 10.0 mi South 8.1 mph - N/A   Overcast
8:15 PM 57.2 °F - 40.5 °F 54% 29.97 in 10.0 mi SSE 8.1 mph - N/A   Overcast
8:35 PM 56.7 °F - 41.2 °F 56% 29.98 in 10.0 mi SSE 6.9 mph - N/A Rain Light Rain
8:55 PM 53.8 °F - 44.4 °F 71% 29.98 in 10.0 mi South 8.1 mph - 0.01 in Rain Light Rain
9:15 PM 51.3 °F - 47.7 °F 87% 29.99 in 10.0 mi West 4.6 mph - 0.01 in Rain Light Rain
9:35 PM 50.9 °F - 47.5 °F 88% 29.99 in 7.0 mi WNW 3.5 mph - 0.03 in Rain Rain
9:55 PM 50.4 °F - 47.8 °F 91% 29.99 in 10.0 mi Calm Calm - 0.05 in Rain Light Rain
10:15 PM 50.0 °F - 48.6 °F 95% 29.98 in 10.0 mi Calm Calm - N/A   Light Drizzle
10:35 PM 49.8 °F - 48.6 °F 95% 29.97 in 7.0 mi Calm Calm - 0.01 in Rain Light Rain
10:55 PM 49.6 °F - 48.9 °F 97% 29.96 in 7.0 mi Calm Calm - 0.02 in Rain Light Rain
11:15 PM 49.6 °F - 49.1 °F 98% 29.96 in 7.0 mi Calm Calm - N/A Rain Light Rain
11:35 PM 50.0 °F - 49.1 °F 97% 29.97 in 7.0 mi Calm Calm - 0.01 in Rain Light Rain
11:55 PM 50.0 °F - 49.1 °F 97% 29.98 in 10.0 mi SW 3.5 mph - 0.02 in Rain Light Rain